Other Public Products
Issued by NWS Grand Forks, ND

Home | Current Version | Previous Version | Graphics & Text | Print | Product List | Glossary On
Versions: 1 2 3 4 5 6 7 8 9 10 11 12 13 14 15 16 17 18 19 20 21 22 23 24 25 26 27 28 29 30 31 32 33 34 35 36 37 38 39 40 41 42 43 44 45 46 47 48 49 50
000
FPUS83 KFGF 192110
OPUFGF
PRAIRIE TO PINES WEATHER ROUNDUP
NATIONAL WEATHER SERVICE EASTERN NORTH DAKOTA/GRAND FORKS ND
400 PM CDT SAT APR 19 2014

 **SATELLITE DATA USED TO AUGMENT SKY COVER AT AUTOMATED STATIONS**
 *****  WEATHER ACROSS EASTERN NORTH DAKOTA  *****

CITY           SKY/WX    TMP DP  RH WIND       PRES   REMARKS
GRAND FORKS    MOSUNNY   62  39  42 W20G30    29.85R
GRAND FORKS AF SUNNY     62  38  40 W21G30    29.87R
GRAND CITY NWS   N/A     64 N/A N/A W29         N/A
BUXTON         NOT AVBL
DEVILS LAKE    CLOUDY    52  37  58 W25G32    29.88R
FARGO          MOSUNNY   69  31  24 W18       29.90R
WAHPETON ARPT  PTCLDY    68  23  18 W17G24    29.94R
$$

 *****  WEATHER ACROSS CENTRAL AND WESTERN NORTH DAKOTA  *****

CITY           SKY/WX    TMP DP  RH WIND       PRES   REMARKS
JAMESTOWN      SUNNY     66  32  28 W16       29.89R
BISMARCK       SUNNY     66  32  28 W21G30    29.93R
MINOT          CLOUDY    52  33  48 W21       29.91R
MINOT AFB      CLOUDY    50  35  57 NW20      29.91R
GARRISON         N/A     54  35  48 W23       29.94R
WILLISTON      MOSUNNY   57  34  41 W16G22    29.92F
DICKINSON      MOSUNNY   61  31  32 W20G25    29.94R
HETTINGER      SUNNY     62  28  27 W17G35    29.97S
$$

 *****  OTHER OBSERVATIONS NORTHEAST NORTH DAKOTA  *****

CITY           SKY/WX    TMP DP  RH WIND       PRES   REMARKS
WALHALLA         N/A     54  37  54 W18G32    29.81R
LANGDON        FAIR      54  36  50 W32G40    29.83R
CAVALIER       CLOUDY    55  39  54 W22G33    29.82R
GRAFTON        MOCLDY    55  39  54 W25G35    29.84R
CANDO          MOCLDY    50  36  57 W28G33    29.88R
FORT TOTTEN    NOT AVBL
ROLLA          MOCLDY    46  36  66 W22G33    29.86R
RUGBY          FAIR      48  36  61 W21G30    29.90R
 ***** THE ABOVE OBSERVATIONS ARE NON NWS ARE NOT QUALITY
        CONTROLLED AND MAY MIS-REPORT RAIN FOR SNOW...
$$

 *****  OTHER OBSERVATIONS SOUTHEAST NORTH DAKOTA *****

CITY           SKY/WX    TMP DP  RH WIND       PRES   REMARKS
COOPERSTOWN    FAIR      59  37  44 W23G33    29.88R
VALLEY CITY    FAIR      64  30  27 W18G28    29.90S
OAKES          FAIR      66  32  28 W15       29.93S
GWINNER        CLEAR     68  32  26 W18       29.94S
SHEYENNE NWR     N/A     67  29  24 W13       29.95S
BUFFALO        NOT AVBL
WYNDMERE       NOT AVBL
 ***** THE ABOVE OBSERVATIONS ARE NON NWS ARE NOT QUALITY
       CONTROLLED AND MAY MIS-REPORT RAIN FOR SNOW...
$$

  *****  WEATHER ACROSS NORTHERN MINNESOTA  *****

CITY           SKY/WX    TMP DP  RH WIND       PRES   REMARKS
FLAG ISLAND    PTSUNNY   52  34  50 SW30G36   29.75R
WARROAD        SUNNY     57  41  54 SW23G32   29.80R
ROSEAU         SUNNY     59  39  47 W20G28    29.80S
HALLOCK        CLOUDY    55  43  62 W23G31    29.82R
THF RVR FALLS  SUNNY     59  37  44 W20G26    29.86S
HALSTAD          N/A     66  32  28 W22         N/A
FOSSTON        MOSUNNY   63  30  29 W17G29    29.88R
BAUDETTE       MOSUNNY   59  36  42 SW20G31   29.80R
WASKISH        MOSUNNY   55  36  47 SW15      29.85R
CROOKSTON      SUNNY     63  39  42 W17G28    29.87R
$$
  *****  WEATHER ACROSS CENTRAL AND WEST MINNESOTA  *****

CITY           SKY/WX    TMP DP  RH WIND       PRES   REMARKS
BEMIDJI        PTSUNNY   63  31  29 SW17G29   29.88R
PARK RAPIDS    PTSUNNY   66  31  27 W20G29    29.90R
WADENA         MOSUNNY   64  36  34 W17       29.92S
DETROIT LAKES  PTSUNNY   63  28  27 W14G21    29.94R
MOORHEAD       MOSUNNY   66  21  18 W12G21    29.91S
FERGUS FALLS   MOSUNNY   66  25  20 W21       29.90R
ELBOW LAKE     FAIR      68  32  25 W13G22    29.95S
MORRIS MN      MOSUNNY   70  32  24 W12G20    29.94F
STAPLES        MOSUNNY   66  30  26 W12       29.93S
WHEATON        MOSUNNY   72  36  26 SW14G21   29.96S
$$
  *****  WEATHER ELSEWHERE ACROSS MINNESOTA  *****

CITY           SKY/WX    TMP DP  RH WIND       PRES   REMARKS
DULUTH         CLOUDY    40  31  70 SE9       30.01S
INTRNTL FALLS  PTSUNNY   55  38  52 S13G22    29.83F
ELY            CLOUDY    39  32  75 S10       29.98S
CLOQUET        CLOUDY    46  32  57 SE5       30.00S
BRAINERD       MOSUNNY   66  44  45 S15G23    29.94F
HIBBING        MOSUNNY   54  35  48 S12G21    29.94F
ALEXANDRIA     MOSUNNY   66  33  29 W14G21    29.95S
SAINT CLOUD    CLOUDY    59  47  64 CALM      29.98R
MINNEAPOLIS    CLOUDY    67  44  43 S16       29.99F
$$

  *****  WEATHER ACROSS SOUTH DAKOTA  *****

CITY           SKY/WX    TMP DP  RH WIND       PRES   REMARKS
SIOUX FALLS    CLOUDY    69  41  36 NW12      29.99S
BROOKINGS      NOT AVBL
WATERTOWN      MOSUNNY   65  25  22 W10       29.98F
HURON          MOSUNNY   69  22  16 VRB3      29.98F
SISSETON         N/A     68  26  20 W14G23    29.94S
ABERDEEN       MOSUNNY   69  24  18 W16G23    29.95F
MITCHELL       PTSUNNY   66  26  22 N8        30.00S
PIERRE         PTSUNNY   67  21  17 SW7       29.99S
MOBRIDGE       SUNNY     68  26  20 W13       29.93S
RAPID CITY     MOSUNNY   64  33  31 SE12G21   30.01F
$$

  *****  SOME WEATHER IN NEARBY STATES *****

CITY           SKY/WX    TMP DP  RH WIND       PRES   REMARKS
GLASGOW MT     MOSUNNY   59  33  37 W15       29.91F
GREAT FALLS MT SUNNY     62  14  15 SW18      29.86F
CHEYENNE WY    PTSUNNY   60  37  42 SW10G18   30.06F
SCOTTSBLUFF NE CLOUDY    64  31  28 S12       30.03F
OMAHA NE       CLOUDY    78  43  28 S17G31    29.98F
DES MOINES IA  CLOUDY    77  43  29 S16G31    30.05F
DAVENPORT IA   PTSUNNY   73  35  25 SE15G25   30.18F
CHICAGO IL     PTSUNNY   65  36  34 SE14      30.25F
EAU CLAIRE WI  CLOUDY    65  35  33 S22G29    30.04F
LA CROSSE WI   SUNNY     68  35  29 S16G26    30.10F
$$

  *****  SOME NATIONAL WEATHER *****

CITY           SKY/WX    TMP DP  RH WIND       PRES   REMARKS
LA GUARDIA NY  PTSUNNY   65  22  19 NE9       30.23R
RALEIGH NC     CLOUDY    52  46  80 NE9       30.17F
ATLANTA GA     CLOUDY    60  54  80 NE22      30.09S
NEW ORLEANS LA MOSUNNY   76  53  44 NW12      30.09F
OKLAHOMA CITY  CLOUDY    79  48  33 S18G25    30.08F
ALBUQUERQUE NM CLOUDY    56  43  61 S14       30.11F
SALT LAKE CITY PTSUNNY   71  39  31 NW12      29.99S
LOS ANGELES CA PTSUNNY   66  52  60 W14       30.01F
BOISE ID       SUNNY     72  22  15 VRB7      29.89F
SEATTLE WA     RAIN      47  45  93 S5        29.91R FOG
$$

*** WEATHER ACROSS MANITOBA...SASKATCHEWAN AND ONTARIO ***
                ***ONTARIO***

CITY           SKY/WX    TMP DP  RH WIND       PRES   REMARKS
GERALDTON      HVY SNOW  30  28  93 SE12      30.21F VSB 1/8 WCI  21
THUNDER BAY    LGTSLEET  34  32  93 E10       30.13F
SIOUX LOOKOUT  DRIZZLE   34  32  93 S15G24    29.88F WCI  24
TORONTO        MOSUNNY   48  32  53 SE9       30.40F
BIG TROUT LK   CLOUDY    39  23  52 S25G31    30.01F
PICKLE LAKE    FRZ RAIN  30  28  93 SE20G35   29.96F DRFTSNOWWCI  18
DRYDEN         CLOUDY    39  36  87 S15G25    29.83F
KENORA         PTSUNNY   48  36  61 S13G18    29.76S
$$
                *** MANITOBA***

CITY           SKY/WX    TMP DP  RH WIND       PRES   REMARKS
BRANDON        CLOUDY    41  36  81 W16G26    29.84R
DAUPHIN        CLOUDY    37  32  81 W20G29    29.76R
ISLAND LAKE    LGT SNOW  34  34 100 E8G21     29.74F DRFTSNOW
PILOT MOUND      N/A     45  34  65 W16G24      N/A
THE PAS        FLURRIES  32  32 100 N8        29.74R WCI  25
THOMPSON       LGT SNOW  32  32 100 E13G18    29.80F VSB 1   WCI  22
WINNIPEG       CLOUDY    45  39  81 W21G29    29.77R
LYNN LAKE      PTSUNNY   37  16  41 E16G25    29.82F
CHURCHILL      PTSUNNY   30  23  74 E10       30.12F WCI  21
GILLAM         CLOUDY    39  21  48 E12       29.92F
$$
                ***SASKATCHEWAN***

CITY           SKY/WX    TMP DP  RH WIND       PRES   REMARKS
ESTEVAN        PTSUNNY   46  36  66 W17G23    29.91R
KINDERSLEY     PTSUNNY   45  32  61 W8G20     29.85F
LLOYDMINSTER   MOSUNNY   48  27  43 NW9       29.80S
PRINCE ALBERT  PTSUNNY   37  28  70 W9        29.83R
REGINA         CLOUDY    39  32  75 NW20      29.89R



USA.gov is the U.S. government's official web portal to all federal, state and local government web resources and services.